| time (UTC) | temp F | wind direction | speed MPH | gust MPH | rain 1hr in | rain 24hr in | rain mn in | humidity % | barometer mb |
| 20260510130005 | 74 | 168 | 0.0 | 2.0 | 0.00 | 0.57 | 0.00 | 99 | 1014.0 |
| 20260510125005 | 73 | 167 | 0.0 | 1.0 | 0.00 | 0.57 | 0.00 | 99 | 1014.0 |
| 20260510124216 | 73 | 0 | 0.0 | 0.0 | 0.00 | 0.57 | 0.00 | 99 | 1013.9 |
| 20260510123005 | 72 | 0 | 0.0 | 0.0 | 0.00 | 0.57 | 0.00 | 99 | 1013.9 |
| 20260510122005 | 72 | 0 | 0.0 | 0.0 | 0.00 | 0.57 | 0.00 | 99 | 1013.7 |
| 20260510121005 | 72 | 0 | 0.0 | 0.0 | 0.00 | 0.57 | 0.00 | 99 | 1013.7 |
| 20260510120005 | 71 | 78 | 0.0 | 1.0 | 0.00 | 0.57 | 0.00 | 99 | 1013.7 |
| 20260510115005 | 71 | 0 | 0.0 | 0.0 | 0.00 | 0.57 | 0.00 | 99 | 1013.6 |
| 20260510114005 | 71 | 0 | 0.0 | 0.0 | 0.00 | 0.57 | 0.00 | 99 | 1013.3 |
| 20260510113005 | 71 | 0 | 0.0 | 0.0 | 0.00 | 0.57 | 0.00 | 99 | 1013.1 |
| 20260510112005 | 70 | 0 | 0.0 | 0.0 | 0.00 | 0.57 | 0.00 | 99 | 1012.9 |
| 20260510111005 | 70 | 0 | 0.0 | 0.0 | 0.00 | 0.57 | 0.00 | 99 | 1012.9 |
| 20260510110005 | 70 | 0 | 0.0 | 0.0 | 0.00 | 0.57 | 0.00 | 99 | 1013.0 |
| 20260510105217 | 70 | 0 | 0.0 | 0.0 | 0.00 | 0.57 | 0.00 | 99 | 1012.6 |
| 20260510104217 | 70 | 0 | 0.0 | 0.0 | 0.00 | 0.57 | 0.00 | 99 | 1012.5 |
| 20260510103005 | 70 | 77 | 0.0 | 0.0 | 0.00 | 0.57 | 0.00 | 99 | 1012.7 |
| 20260510102005 | 70 | 77 | 0.0 | 1.0 | 0.00 | 0.57 | 0.00 | 99 | 1012.4 |
| 20260510101004 | 71 | 0 | 0.0 | 0.0 | 0.00 | 0.57 | 0.00 | 99 | 1012.3 |
| 20260510100005 | 71 | 76 | 0.0 | 1.0 | 0.00 | 0.57 | 0.00 | 99 | 1012.1 |
| 20260510095217 | 71 | 122 | 0.0 | 1.0 | 0.00 | 0.57 | 0.00 | 99 | 1012.0 |
| 20260510094005 | 71 | 0 | 0.0 | 0.0 | 0.00 | 0.57 | 0.00 | 99 | 1011.8 |
| 20260510093005 | 71 | 0 | 0.0 | 0.0 | 0.00 | 0.57 | 0.00 | 99 | 1011.7 |
| 20260510092005 | 71 | 120 | 0.0 | 1.0 | 0.00 | 0.57 | 0.00 | 99 | 1011.8 |
| 20260510091005 | 71 | 0 | 0.0 | 0.0 | 0.00 | 0.57 | 0.00 | 99 | 1011.4 |
| 20260510090005 | 71 | 0 | 0.0 | 0.0 | 0.00 | 0.57 | 0.00 | 99 | 1011.2 |
| 20260510085004 | 71 | 0 | 0.0 | 0.0 | 0.00 | 0.57 | 0.00 | 99 | 1011.5 |
| 20260510084005 | 71 | 0 | 0.0 | 0.0 | 0.00 | 0.57 | 0.00 | 99 | 1011.3 |
| 20260510083005 | 71 | 145 | 0.0 | 1.0 | 0.00 | 0.57 | 0.00 | 99 | 1011.4 |
| 20260510082004 | 71 | 126 | 0.0 | 1.0 | 0.00 | 0.57 | 0.00 | 99 | 1010.9 |
| 20260510081217 | 71 | 172 | 0.0 | 1.0 | 0.00 | 0.57 | 0.00 | 99 | 1011.0 |
| 20260510080005 | 71 | 158 | 0.0 | 2.0 | 0.00 | 0.57 | 0.00 | 99 | 1011.2 |
| 20260510075218 | 72 | 156 | 0.0 | 1.0 | 0.00 | 0.57 | 0.00 | 99 | 1011.2 |
| 20260510074214 | 72 | 174 | 0.0 | 2.0 | 0.00 | 0.57 | 0.00 | 99 | 1010.9 |
| 20260510073005 | 72 | 142 | 0.0 | 2.0 | 0.00 | 0.57 | 0.00 | 99 | 1011.0 |
| 20260510072216 | 71 | 142 | 0.0 | 1.0 | 0.00 | 0.57 | 0.00 | 99 | 1011.1 |
| 20260510071217 | 71 | 125 | 0.0 | 1.0 | 0.00 | 0.57 | 0.00 | 99 | 1010.9 |
| 20260510070005 | 72 | 185 | 0.0 | 1.0 | 0.00 | 0.57 | 0.00 | 99 | 1011.2 |
| 20260510065004 | 72 | 154 | 1.0 | 4.0 | 0.00 | 0.57 | 0.00 | 99 | 1010.9 |
| 20260510064005 | 72 | 146 | 0.0 | 2.0 | 0.00 | 0.57 | 0.00 | 99 | 1011.0 |
| 20260510063216 | 72 | 154 | 0.0 | 1.0 | 0.00 | 0.57 | 0.00 | 99 | 1011.5 |
| 20260510062217 | 72 | 153 | 0.0 | 3.0 | 0.00 | 0.57 | 0.00 | 99 | 1011.6 |
| 20260510061005 | 72 | 141 | 0.0 | 2.0 | 0.00 | 0.57 | 0.00 | 99 | 1011.9 |
| 20260510060006 | 72 | 144 | 0.0 | 2.0 | 0.00 | 0.57 | 0.00 | 99 | 1011.8 |
| 20260510055004 | 71 | 140 | 0.0 | 2.0 | 0.00 | 0.57 | 0.00 | 99 | 1012.1 |
| 20260510054216 | 71 | 134 | 0.0 | 1.0 | 0.00 | 0.57 | 0.00 | 99 | 1012.3 |
| 20260510053004 | 72 | 161 | 0.0 | 2.0 | 0.00 | 0.57 | 0.00 | 99 | 1012.4 |
| 20260510052004 | 72 | 0 | 0.0 | 0.0 | 0.00 | 0.57 | 0.00 | 99 | 1012.6 |
| 20260510051005 | 72 | 0 | 0.0 | 0.0 | 0.00 | 0.57 | 0.00 | 99 | 1012.6 |
| 20260510050005 | 72 | 0 | 0.0 | 0.0 | 0.00 | 0.57 | 0.00 | 99 | 1012.7 |
| 20260510045004 | 72 | 0 | 0.0 | 0.0 | 0.00 | 0.57 | 0.00 | 99 | 1013.0 |
| 20260510044216 | 72 | 0 | 0.0 | 0.0 | 0.00 | 0.57 | 0.00 | 99 | 1013.0 |
| 20260510043004 | 72 | 148 | 0.0 | 1.0 | 0.00 | 0.57 | 0.00 | 99 | 1012.9 |
| 20260510042005 | 72 | 0 | 0.0 | 0.0 | 0.00 | 0.57 | 0.00 | 99 | 1013.0 |
| 20260510041005 | 72 | 0 | 0.0 | 0.0 | 0.00 | 0.57 | 0.00 | 99 | 1013.1 |
| 20260510040020 | 72 | 0 | 0.0 | 0.0 | 0.00 | 0.57 | 0.00 | 99 | 1013.3 |
| 20260510035005 | 72 | 0 | 0.0 | 0.0 | 0.00 | 0.57 | 0.57 | 99 | 1013.1 |
| 20260510034004 | 72 | 0 | 0.0 | 0.0 | 0.00 | 0.57 | 0.57 | 99 | 1013.1 |
| 20260510033218 | 72 | 0 | 0.0 | 0.0 | 0.00 | 0.57 | 0.57 | 99 | 1013.1 |
| 20260510032005 | 72 | 0 | 0.0 | 0.0 | 0.00 | 0.57 | 0.57 | 99 | 1013.0 |
| 20260510031004 | 72 | 0 | 0.0 | 0.0 | 0.00 | 0.57 | 0.57 | 99 | 1013.1 |
| 20260510030005 | 72 | 0 | 0.0 | 0.0 | 0.00 | 0.57 | 0.57 | 99 | 1012.9 |
| 20260510025005 | 72 | 0 | 0.0 | 0.0 | 0.00 | 0.57 | 0.57 | 99 | 1012.9 |
| 20260510024217 | 72 | 0 | 0.0 | 0.0 | 0.00 | 0.57 | 0.57 | 99 | 1013.0 |
| 20260510023005 | 72 | 65 | 0.0 | 1.0 | 0.00 | 0.57 | 0.57 | 99 | 1012.7 |
| 20260510022214 | 72 | 78 | 0.0 | 2.0 | 0.00 | 0.57 | 0.57 | 99 | 1012.5 |
| 20260510021004 | 72 | 0 | 0.0 | 0.0 | 0.00 | 0.57 | 0.57 | 99 | 1012.6 |
| 20260510020005 | 72 | 0 | 0.0 | 0.0 | 0.00 | 0.57 | 0.57 | 99 | 1012.0 |
| 20260510015004 | 72 | 73 | 0.0 | 2.0 | 0.00 | 0.57 | 0.57 | 99 | 1012.7 |
| 20260510014218 | 72 | 73 | 0.0 | 2.0 | 0.00 | 0.57 | 0.57 | 99 | 1012.0 |
| 20260510013005 | 72 | 86 | 0.0 | 2.0 | 0.00 | 0.57 | 0.57 | 99 | 1012.1 |
| 20260510012004 | 72 | 89 | 0.0 | 1.0 | 0.00 | 0.57 | 0.57 | 99 | 1011.7 |
| 20260510011004 | 72 | 0 | 0.0 | 0.0 | 0.00 | 0.57 | 0.57 | 99 | 1011.5 |
| 20260510010005 | 72 | 0 | 0.0 | 0.0 | 0.00 | 0.57 | 0.57 | 99 | 1011.5 |
| 20260510005004 | 72 | 103 | 0.0 | 1.0 | 0.00 | 0.57 | 0.57 | 99 | 1011.6 |
| 20260510004214 | 72 | 57 | 0.0 | 2.0 | 0.00 | 0.57 | 0.57 | 99 | 1011.8 |
| 20260510003005 | 72 | 24 | 0.0 | 2.0 | 0.00 | 0.57 | 0.57 | 99 | 1011.7 |
| 20260510002004 | 72 | 36 | 1.0 | 3.0 | 0.00 | 0.57 | 0.57 | 99 | 1011.8 |
| 20260510001217 | 72 | 29 | 1.0 | 2.0 | 0.00 | 0.58 | 0.57 | 99 | 1011.7 |
| 20260510000005 | 72 | 31 | 1.0 | 4.0 | 0.00 | 0.59 | 0.57 | 99 | 1011.6 |
| 20260509235004 | 73 | 6 | 1.0 | 3.0 | 0.00 | 0.59 | 0.57 | 99 | 1011.3 |
| 20260509234214 | 73 | 33 | 1.0 | 3.0 | 0.00 | 0.59 | 0.57 | 99 | 1011.4 |
| 20260509233215 | 72 | 360 | 2.0 | 4.0 | 0.00 | 0.59 | 0.57 | 99 | 1011.3 |
| 20260509232004 | 73 | 7 | 2.0 | 4.0 | 0.00 | 0.59 | 0.57 | 99 | 1011.6 |
| 20260509231005 | 74 | 15 | 1.0 | 4.0 | 0.00 | 0.59 | 0.57 | 99 | 1011.2 |
| 20260509230005 | 74 | 13 | 1.0 | 3.0 | 0.00 | 0.59 | 0.57 | 99 | 1011.0 |
| 20260509225004 | 74 | 28 | 0.0 | 3.0 | 0.00 | 0.59 | 0.57 | 99 | 1011.2 |
| 20260509224005 | 74 | 11 | 1.0 | 3.0 | 0.00 | 0.59 | 0.57 | 99 | 1010.9 |
| 20260509223005 | 74 | 28 | 1.0 | 4.0 | 0.00 | 0.61 | 0.57 | 99 | 1010.9 |
| 20260509222005 | 74 | 39 | 1.0 | 3.0 | 0.00 | 0.61 | 0.57 | 99 | 1010.7 |
| 20260509221005 | 74 | 23 | 1.0 | 3.0 | 0.00 | 0.61 | 0.57 | 99 | 1011.0 |
| 20260509220005 | 74 | 53 | 0.0 | 2.0 | 0.00 | 0.61 | 0.57 | 99 | 1011.1 |
| 20260509215215 | 74 | 46 | 1.0 | 2.0 | 0.00 | 0.62 | 0.57 | 99 | 1011.1 |
| 20260509214005 | 74 | 36 | 0.0 | 2.0 | 0.00 | 0.63 | 0.57 | 99 | 1011.0 |
| 20260509213005 | 74 | 20 | 0.0 | 1.0 | 0.00 | 0.63 | 0.57 | 99 | 1010.9 |
| 20260509212005 | 74 | 0 | 0.0 | 0.0 | 0.00 | 0.64 | 0.57 | 99 | 1010.9 |
| 20260509211005 | 73 | 0 | 0.0 | 0.0 | 0.00 | 0.64 | 0.57 | 99 | 1010.8 |
| 20260509210005 | 74 | 0 | 0.0 | 0.0 | 0.02 | 0.87 | 0.57 | 99 | 1010.9 |
| 20260509205005 | 73 | 0 | 0.0 | 0.0 | 0.06 | 1.02 | 0.57 | 99 | 1011.0 |
| 20260509204216 | 73 | 0 | 0.0 | 0.0 | 0.14 | 1.05 | 0.57 | 99 | 1010.9 |
| 20260509203004 | 74 | 53 | 0.0 | 1.0 | 0.49 | 1.10 | 0.57 | 99 | 1010.8 |
| 20260509202005 | 73 | 0 | 0.0 | 0.0 | 0.50 | 1.10 | 0.57 | 99 | 1010.9 |
| 20260509201005 | 73 | 38 | 0.0 | 2.0 | 0.53 | 1.10 | 0.57 | 99 | 1011.0 |
| 20260509200005 | 72 | 14 | 2.0 | 4.0 | 0.55 | 1.08 | 0.55 | 98 | 1011.2 |
| 20260509195005 | 72 | 10 | 2.0 | 5.0 | 0.51 | 1.04 | 0.51 | 98 | 1010.9 |
| 20260509194217 | 73 | 355 | 5.0 | 15.0 | 0.43 | 0.96 | 0.45 | 97 | 1011.4 |
| 20260509193005 | 76 | 33 | 1.0 | 3.0 | 0.08 | 0.61 | 0.08 | 95 | 1010.8 |
| 20260509192004 | 78 | 97 | 0.0 | 1.0 | 0.07 | 0.60 | 0.07 | 94 | 1010.6 |
| 20260509191004 | 79 | 54 | 0.0 | 1.0 | 0.04 | 0.57 | 0.04 | 90 | 1010.5 |
| 20260509190006 | 81 | 1 | 0.0 | 1.0 | 0.00 | 0.53 | 0.00 | 84 | 1010.8 |
| 20260509185005 | 81 | 346 | 2.0 | 6.0 | 0.00 | 0.53 | 0.00 | 80 | 1010.5 |
| 20260509184004 | 83 | 354 | 2.0 | 4.0 | 0.00 | 0.53 | 0.00 | 79 | 1010.6 |
| 20260509183004 | 83 | 3 | 1.0 | 4.0 | 0.00 | 0.53 | 0.00 | 78 | 1010.7 |
| 20260509182005 | 84 | 294 | 1.0 | 3.0 | 0.00 | 0.53 | 0.00 | 75 | 1010.9 |
| 20260509181005 | 84 | 349 | 1.0 | 3.0 | 0.00 | 0.53 | 0.00 | 76 | 1011.0 |
| 20260509180216 | 84 | 322 | 1.0 | 4.0 | 0.00 | 0.53 | 0.00 | 76 | 1011.1 |
| 20260509175004 | 83 | 354 | 2.0 | 6.0 | 0.00 | 0.53 | 0.00 | 78 | 1011.3 |
| 20260509174005 | 83 | 287 | 1.0 | 3.0 | 0.00 | 0.53 | 0.00 | 76 | 1011.5 |
| 20260509173005 | 84 | 48 | 1.0 | 4.0 | 0.00 | 0.53 | 0.00 | 76 | 1011.2 |
| 20260509172004 | 83 | 296 | 1.0 | 3.0 | 0.00 | 0.53 | 0.00 | 77 | 1011.5 |
| 20260509171005 | 82 | 350 | 2.0 | 6.0 | 0.00 | 0.53 | 0.00 | 78 | 1011.2 |
| 20260509170217 | 83 | 233 | 1.0 | 3.0 | 0.00 | 0.53 | 0.00 | 78 | 1011.5 |
| 20260509165004 | 82 | 261 | 1.0 | 3.0 | 0.00 | 0.53 | 0.00 | 77 | 1011.7 |
| 20260509164005 | 83 | 184 | 1.0 | 2.0 | 0.00 | 0.53 | 0.00 | 78 | 1011.9 |
| 20260509163004 | 81 | 248 | 1.0 | 2.0 | 0.00 | 0.53 | 0.00 | 80 | 1012.0 |
| 20260509162004 | 81 | 345 | 1.0 | 3.0 | 0.00 | 0.53 | 0.00 | 81 | 1011.7 |
| 20260509161005 | 80 | 270 | 1.0 | 3.0 | 0.00 | 0.53 | 0.00 | 80 | 1011.5 |
| 20260509160005 | 81 | 204 | 1.0 | 2.0 | 0.00 | 0.53 | 0.00 | 82 | 1011.5 |
| 20260509155004 | 81 | 162 | 0.0 | 1.0 | 0.00 | 0.53 | 0.00 | 83 | 1011.8 |
| 20260509154004 | 80 | 151 | 1.0 | 3.0 | 0.00 | 0.53 | 0.00 | 85 | 1011.8 |
| 20260509153215 | 79 | 228 | 1.0 | 4.0 | 0.00 | 0.53 | 0.00 | 86 | 1011.8 |
| 20260509152005 | 78 | 164 | 1.0 | 2.0 | 0.00 | 0.53 | 0.00 | 87 | 1011.6 |
| 20260509151217 | 78 | 152 | 1.0 | 3.0 | 0.00 | 0.53 | 0.00 | 88 | 1011.5 |
| 20260509150005 | 78 | 144 | 0.0 | 1.0 | 0.00 | 0.53 | 0.00 | 88 | 1011.8 |
| 20260509145004 | 78 | 213 | 1.0 | 4.0 | 0.00 | 0.53 | 0.00 | 89 | 1011.8 |
| 20260509144004 | 77 | 197 | 1.0 | 3.0 | 0.00 | 0.53 | 0.00 | 89 | 1012.1 |
| 20260509143216 | 77 | 220 | 1.0 | 2.0 | 0.00 | 0.53 | 0.00 | 89 | 1012.1 |
| 20260509142005 | 77 | 171 | 1.0 | 3.0 | 0.00 | 0.53 | 0.00 | 89 | 1012.0 |
| 20260509141218 | 77 | 152 | 0.0 | 2.0 | 0.00 | 0.53 | 0.00 | 89 | 1011.9 |
| 20260509140006 | 76 | 187 | 1.0 | 2.0 | 0.00 | 0.53 | 0.00 | 91 | 1012.0 |
| 20260509135215 | 76 | 216 | 1.0 | 3.0 | 0.00 | 0.53 | 0.00 | 91 | 1011.6 |
| 20260509134004 | 75 | 196 | 0.0 | 2.0 | 0.00 | 0.53 | 0.00 | 91 | 1011.8 |
| 20260509133005 | 75 | 217 | 1.0 | 2.0 | 0.00 | 0.53 | 0.00 | 92 | 1011.7 |
| 20260509132005 | 74 | 111 | 0.0 | 2.0 | 0.00 | 0.53 | 0.00 | 93 | 1011.5 |
| 20260509131004 | 74 | 0 | 0.0 | 0.0 | 0.00 | 0.53 | 0.00 | 93 | 1011.5 |